• Processing (Info)

  • MPEC 2016-C36 : 2016 CL18

    The following Minor Planet Electronic Circular may be linked-to from your own Web pages, but must not otherwise be redistributed electronically.

    A form allowing access to any MPEC is at the bottom of this page.


    Read MPEC 2016-C35 Read MPEC 2016-C37


    M.P.E.C. 2016-C36                                Issued 2016 Feb. 4, 16:23 UT
    
         The Minor Planet Electronic Circulars contain information on unusual
             minor planets and routine data on comets.  They are published
        on behalf of Division F of the International Astronomical Union by the
              Minor Planet Center, Smithsonian Astrophysical Observatory,
                              Cambridge, MA 02138, U.S.A.
    
                 Prepared using the Tamkin Foundation Computer Network
    
                                  MPC@CFA.HARVARD.EDU
                URL https://www.minorplanetcenter.net/    ISSN 1523-6714
    
                                       2016 CL18
    
    Observations:
         K16C18L* C2016 02 02.37504 09 13 50.493+14 37 50.61         21.1 wLEC036F51
         K16C18L  C2016 02 02.38664 09 13 48.359+14 38 00.77         21.3 wLEC036F51
         K16C18L  C2016 02 02.38792 09 13 48.116+14 38 01.91         21.3 wLEC036F51
         K16C18L  C2016 02 02.39824 09 13 46.217+14 38 10.30         21.2 wLEC036F51
         K16C18L  C2016 02 02.39953 09 13 45.957+14 38 11.57         21.5 wLEC036F51
         K16C18L  C2016 02 02.40987 09 13 44.041+14 38 20.01         21.0 wLEC036F51
         K16C18L  C2016 02 02.41116 09 13 43.777+14 38 20.94         21.3 wLEC036F51
         K16C18L KC2016 02 03.31179 09 11 14.08 +14 49 59.7          21.0 RoEC036291
         K16C18L KC2016 02 03.31352 09 11 13.82 +14 50 00.4          20.4 RoEC036291
         K16C18L KC2016 02 03.31524 09 11 13.51 +14 50 02.1                oEC036291
         K16C18L KC2016 02 04.34558 09 08 31.70 +15 02 40.9          21.0 RoEC036291
         K16C18L KC2016 02 04.34817 09 08 31.25 +15 02 42.7          21.2 RoEC036291
         K16C18L KC2016 02 04.35076 09 08 30.82 +15 02 44.8          21.4 RoEC036291
    
    Observer details:
    291 LPL/Spacewatch II.  Observers T. H. Bressi, M. T. Read.  1.8-m f/2.7
        reflector + CCD.
    F51 Pan-STARRS 1, Haleakala.  Observers B. Gibson, T. Goggia, N. Primak,
        A. Schultz, M. Willman.  Measurers K. Chambers, S. Chastel, L. Denneau,
        H. Flewelling, M. Huber, E. Lilly, E. Magnier, R. Wainscoat, C. Waters,
        R. Weryk.  1.8-m Ritchey-Chretien + CCD.
    
    Orbital elements:
    2016 CL18                                                Earth MOID = 0.0011 AU
    Epoch 2016 Jan. 13.0 TT = JDT 2457400.5                 MPC
    M  36.69496              (2000.0)            P               Q
    n   0.61826475     Peri.  116.15567     +0.82833362     -0.56019139
    a   1.3646451      Node   277.91412     +0.51144858     +0.76124262
    e   0.4330460      Incl.    0.40506     +0.22865645     +0.32664245
    P   1.59           H   23.8           G   0.15           U   9
    Residuals in seconds of arc
    160202 F51  0.3-  0.4-    160202 F51  0.2+  0.1+    160204 291  0.2+  0.0
    160202 F51  0.0   0.1+    160202 F51  0.1-  0.0     160204 291  0.1-  0.0
    160202 F51  0.0   0.2+    160203 291  0.5-  0.0     160204 291  0.0   0.3+
    160202 F51  0.3+  0.0     160203 291  0.2+  0.6-
    160202 F51  0.0   0.2+    160203 291  0.1+  0.2-
    
    Ephemeris:
    2016 CL18                a,e,i = 1.36, 0.43, 0                   q = 0.7737
    Date    TT    R. A. (2000) Decl.     Delta      r     Elong.  Phase     V
    2016 01 05    12 32 20.1 -04 27 30   0.08041 0.9931    94.7    80.7    21.1
    ...
    2016 01 20    10 10 13.0 +09 47 44   0.1316  1.0978   148.1    28.3    20.8
    ...
    2016 01 28    09 31 38.2 +13 11 06   0.1739  1.1544   166.2    11.7    21.0
    ...
    2016 02 03    09 12 04.8 +14 46 11   0.2111  1.1964   177.1     2.4    21.1
    2016 02 04    09 09 25.2 +14 58 43   0.2178  1.2034   178.4     1.3    21.1
    2016 02 05    09 06 54.7 +15 10 28   0.2246  1.2103   178.5     1.2    21.1
    ...
    2016 02 11    08 54 44.2 +16 06 34   0.2680  1.2516   170.0     7.8    22.0
    ...
    2016 02 19    08 44 53.9 +16 52 06   0.3329  1.3055   159.5    15.4    22.8
    ...
    2016 03 05    08 40 15.6 +17 20 38   0.4751  1.4018   143.3    25.0    24.1
    
    A. U. Tomatic                (C) Copyright 2016 MPC           M.P.E.C. 2016-C36
    

    Read MPEC 2016-C35 Read MPEC 2016-C37


    MPEC number:

    Enter an MPEC number in one of the following forms:

    • 1997-B01 (the full form)
    • J97B01 (the packed version of the full form)
    • B01 (the abbreviated form)